sat.trackr.live / text

‹ back to catalog

STARLINK-32394

NORAD 61853 · 2024-202J

PAYLOAD ACTIVE UNKNOWN

§ Identity

Operator
Country
US
Launch date
2024-11-07
Launch site
AFETR
Launch vehicle
Mass (kg)
RCS (m²)

Purposes: comms

External: N2YO · Heavens-Above · Gunter

§ Orbital elements

Epoch: 2026-09-21T05:07:31.543392Z

Period
94.27 min
Inclination
43.0011°
Eccentricity
0.0001381
Mean motion
15.27566326 rev/d
Perigee alt
482.1 km
Apogee alt
484.0 km
Semi-major
6,861.2 km
B*
-1.4827e-4
RAAN
213.5008°
Arg perigee
263.9780°
Mean anomaly
96.0914°
Rev number
10,523

§ Raw data

STARLINK-323941 61853U 24202J   26264.21355953 -.00004338  00000+0 -14827-3 0  99902 61853  43.0011 213.5008 0001381 263.9780  96.0914 15.27566326105234

JSON: /api/v1/satellites/61853 · /tle

For live sub-satellite position, see the globe view (requires WebGL).

§ Visibility from observer

Set your observer location to see the next 7 days of passes ≥ 10°. The values pass through the URL so the page stays shareable.

No JS? Fill the form by hand. The geolocation button needs JavaScript.